When you browse on this site, cookies collect data to enhance your experience and personalize the content and advertising you see.
Visit our Privacy Policy to learn more. By continuing to use the site, you agree to this use of cookies and data.
  • In Hungary
  • List of Countries
  • For 7 days
  • Water Temperature
  • Satellite Maps
  • Weather Map
  • News
  • Weather Widgets
  • user-avatar
    Login

    Hourly Weather Dochanowo

    Today, 11 December, Tuesday

    Time Temperature Precipitation Wind Pressure Humidity
    00:00 0°C° 0 mm 4 mps 744 mmHg 86%
    01:00 0°C° 0 mm 4 mps 744 mmHg 87%
    02:00 0°C° 0.3 mm 4 mps 744 mmHg 87%
    03:00 0°C° 0.3 mm 4 mps 744 mmHg 86%
    04:00 0°C° 0.3 mm 4 mps 744 mmHg 86%
    05:00 0°C° 0.3 mm 4 mps 744 mmHg 87%
    06:00 0°C° 0.3 mm 4 mps 744 mmHg 88%
    07:00 +1°C° 0.3 mm 3 mps 744 mmHg 89%
    08:00 +1°C° 0.1 mm 3 mps 744 mmHg 89%
    09:00 +1°C° 0.1 mm 3 mps 745 mmHg 89%
    10:00 +1°C° 0.1 mm 3 mps 745 mmHg 90%
    11:00 +2°C° 0.1 mm 3 mps 746 mmHg 89%
    12:00 +2°C° 0.1 mm 3 mps 746 mmHg 88%
    13:00 +2°C° 0.1 mm 3 mps 747 mmHg 87%
    14:00 +2°C° 0.1 mm 3 mps 747 mmHg 88%
    15:00 +2°C° 0.1 mm 3 mps 748 mmHg 89%
    16:00 +2°C° 0.1 mm 3 mps 748 mmHg 91%
    17:00 +1°C° 0.1 mm 3 mps 749 mmHg 91%
    18:00 +1°C° 0.1 mm 3 mps 749 mmHg 92%
    19:00 +1°C° 0.1 mm 3 mps 750 mmHg 92%
    20:00 0°C° 0 mm 3 mps 750 mmHg 93%
    21:00 0°C° 0 mm 3 mps 751 mmHg 93%
    22:00 -1°C° 0 mm 3 mps 751 mmHg 94%
    23:00 -1°C° 0 mm 3 mps 752 mmHg 94%

    Tomorrow, 12 December, Wednesday

    Time Temperature Precipitation Wind Pressure Humidity
    00:00 -1°C° 0 mm 3 mps 752 mmHg 94%
    01:00 -2°C° 0 mm 3 mps 753 mmHg 93%
    02:00 -2°C° 0 mm 3 mps 753 mmHg 93%
    03:00 -2°C° 0 mm 3 mps 753 mmHg 93%
    04:00 -2°C° 0 mm 3 mps 754 mmHg 93%
    05:00 -2°C° 0 mm 2 mps 754 mmHg 93%
    06:00 -2°C° 0 mm 2 mps 755 mmHg 93%
    07:00 -2°C° 0 mm 2 mps 755 mmHg 93%
    08:00 -2°C° 0 mm 2 mps 756 mmHg 92%
    09:00 -1°C° 0 mm 2 mps 756 mmHg 90%
    10:00 -1°C° 0 mm 2 mps 756 mmHg 88%
    11:00 +1°C° 0 mm 2 mps 757 mmHg 86%
    12:00 +1°C° 0 mm 2 mps 757 mmHg 85%
    13:00 +2°C° 0 mm 2 mps 757 mmHg 83%
    14:00 +1°C° 0.2 mm 2 mps 757 mmHg 86%
    15:00 +1°C° 0.2 mm 2 mps 757 mmHg 88%
    16:00 +1°C° 0.2 mm 2 mps 757 mmHg 91%
    17:00 -1°C° 0 mm 2 mps 757 mmHg 92%
    18:00 -1°C° 0 mm 2 mps 757 mmHg 94%
    19:00 -1°C° 0 mm 2 mps 757 mmHg 95%
    20:00 -1°C° 0 mm 2 mps 757 mmHg 95%
    21:00 -2°C° 0 mm 2 mps 758 mmHg 95%
    22:00 -2°C° 0 mm 2 mps 758 mmHg 96%
    23:00 -1°C° 0 mm 2 mps 758 mmHg 95%

    Day after tomorrow, 13 December, Thursday

    Time Temperature Precipitation Wind Pressure Humidity
    00:00 -1°C° 0 mm 2 mps 758 mmHg 94%
    01:00 -1°C° 0 mm 2 mps 758 mmHg 93%
    02:00 -1°C° 0 mm 2 mps 758 mmHg 92%
    03:00 -1°C° 0 mm 3 mps 758 mmHg 91%
    04:00 -1°C° 0 mm 3 mps 758 mmHg 90%
    05:00 -1°C° 0 mm 3 mps 758 mmHg 90%
    06:00 -1°C° 0 mm 3 mps 758 mmHg 90%
    07:00 -1°C° 0 mm 3 mps 758 mmHg 90%
    08:00 -1°C° 0 mm 3 mps 758 mmHg 88%
    09:00 -1°C° 0 mm 3 mps 758 mmHg 87%
    10:00 -1°C° 0 mm 3 mps 758 mmHg 85%
    11:00 0°C° 0 mm 3 mps 758 mmHg 83%
    12:00 0°C° 0 mm 3 mps 757 mmHg 81%
    13:00 0°C° 0 mm 3 mps 757 mmHg 78%
    14:00 -1°C° 0 mm 3 mps 757 mmHg 81%
    15:00 -1°C° 0 mm 3 mps 757 mmHg 84%
    16:00 -2°C° 0 mm 2 mps 757 mmHg 87%
    17:00 -2°C° 0 mm 2 mps 757 mmHg 87%
    18:00 -2°C° 0 mm 2 mps 758 mmHg 88%
    19:00 -2°C° 0 mm 3 mps 758 mmHg 89%
    20:00 -2°C° 0 mm 3 mps 758 mmHg 89%
    21:00 -2°C° 0 mm 2 mps 758 mmHg 89%
    22:00 -2°C° 0 mm 2 mps 758 mmHg 88%
    23:00 -2°C° 0 mm 2 mps 759 mmHg 88%

    14 December, Friday

    Time Temperature Precipitation Wind Pressure Humidity
    00:00 -2°C° 0 mm 2 mps 759 mmHg 87%
    01:00 -2°C° 0 mm 2 mps 759 mmHg 87%
    02:00 -2°C° 0 mm 2 mps 759 mmHg 88%
    03:00 -2°C° 0 mm 2 mps 759 mmHg 89%
    04:00 -3°C° 0 mm 2 mps 759 mmHg 89%
    05:00 -3°C° 0 mm 2 mps 759 mmHg 90%
    06:00 -3°C° 0 mm 2 mps 759 mmHg 91%
    07:00 -3°C° 0 mm 2 mps 759 mmHg 91%
    08:00 -3°C° 0 mm 2 mps 760 mmHg 90%
    09:00 -2°C° 0 mm 2 mps 760 mmHg 88%
    10:00 -2°C° 0 mm 2 mps 761 mmHg 86%
    11:00 -2°C° 0 mm 2 mps 761 mmHg 85%
    12:00 -1°C° 0 mm 2 mps 761 mmHg 84%
    13:00 -1°C° 0 mm 2 mps 761 mmHg 83%
    14:00 -1°C° 0 mm 2 mps 761 mmHg 85%
    15:00 -2°C° 0 mm 2 mps 761 mmHg 87%
    16:00 -2°C° 0 mm 2 mps 761 mmHg 88%
    17:00 -2°C° 0 mm 2 mps 762 mmHg 88%
    18:00 -2°C° 0 mm 2 mps 762 mmHg 88%
    19:00 -2°C° 0 mm 2 mps 762 mmHg 89%
    20:00 -2°C° 0 mm 2 mps 762 mmHg 89%
    21:00 -2°C° 0 mm 2 mps 763 mmHg 89%
    22:00 -2°C° 0 mm 2 mps 763 mmHg 89%
    23:00 -2°C° 0 mm 2 mps 763 mmHg 90%

    15 December, Saturday

    Time Temperature Precipitation Wind Pressure Humidity
    00:00 -2°C° 0 mm 2 mps 763 mmHg 91%
    01:00 -2°C° 0 mm 2 mps 763 mmHg 91%
    02:00 -2°C° 0 mm 2 mps 763 mmHg 92%
    03:00 -2°C° 0 mm 2 mps 763 mmHg 92%
    04:00 -2°C° 0 mm 2 mps 763 mmHg 92%
    05:00 -2°C° 0 mm 2 mps 764 mmHg 93%
    06:00 -2°C° 0 mm 2 mps 764 mmHg 93%
    07:00 -2°C° 0 mm 2 mps 764 mmHg 93%
    08:00 -1°C° 0 mm 2 mps 764 mmHg 91%
    09:00 -1°C° 0 mm 3 mps 765 mmHg 89%
    10:00 -1°C° 0 mm 3 mps 765 mmHg 87%
    11:00 -1°C° 0 mm 3 mps 765 mmHg 84%
    12:00 -1°C° 0 mm 3 mps 765 mmHg 81%
    13:00 0°C° 0 mm 3 mps 765 mmHg 78%
    14:00 -1°C° 0 mm 3 mps 765 mmHg 80%
    15:00 -2°C° 0 mm 3 mps 765 mmHg 83%
    16:00 -2°C° 0 mm 2 mps 764 mmHg 86%
    17:00 -4°C° 0 mm 3 mps 765 mmHg 85%
    18:00 -4°C° 0 mm 3 mps 765 mmHg 84%
    19:00 -4°C° 0 mm 3 mps 765 mmHg 84%
    20:00 -4°C° 0 mm 3 mps 765 mmHg 83%
    21:00 -4°C° 0 mm 3 mps 765 mmHg 82%
    22:00 -2°C° 0 mm 3 mps 765 mmHg 81%
    23:00 -2°C° 0 mm 3 mps 764 mmHg 81%

    16 December, Sunday

    Time Temperature Precipitation Wind Pressure Humidity
    00:00 -4°C° 0 mm 3 mps 764 mmHg 82%
    01:00 -4°C° 0 mm 3 mps 764 mmHg 83%
    02:00 -4°C° 0 mm 4 mps 764 mmHg 85%
    03:00 -4°C° 0 mm 4 mps 764 mmHg 86%
    04:00 -5°C° 0 mm 4 mps 763 mmHg 88%
    05:00 -5°C° 0 mm 4 mps 763 mmHg 87%
    06:00 -5°C° 0 mm 4 mps 763 mmHg 86%
    07:00 -5°C° 0 mm 4 mps 763 mmHg 85%
    08:00 -5°C° 0 mm 5 mps 763 mmHg 82%
    09:00 -5°C° 0 mm 5 mps 763 mmHg 79%
    10:00 -4°C° 0 mm 5 mps 762 mmHg 77%
    11:00 -4°C° 0 mm 5 mps 762 mmHg 76%
    12:00 -4°C° 0 mm 5 mps 762 mmHg 74%
    13:00 -2°C° 0 mm 5 mps 761 mmHg 73%
    14:00 -4°C° 0 mm 5 mps 761 mmHg 75%
    15:00 -4°C° 0 mm 5 mps 761 mmHg 76%
    16:00 -4°C° 0 mm 5 mps 761 mmHg 77%
    17:00 -5°C° 0 mm 5 mps 761 mmHg 78%
    18:00 -5°C° 0 mm 6 mps 760 mmHg 79%
    19:00 -5°C° 0 mm 6 mps 760 mmHg 79%
    20:00 -5°C° 0 mm 5 mps 760 mmHg 79%
    21:00 -4°C° 0 mm 5 mps 760 mmHg 79%
    22:00 -4°C° 0 mm 5 mps 760 mmHg 79%
    23:00 -3°C° 0 mm 4 mps 760 mmHg 80%
    Show more